FW1784 Weather Reports


Display with metric or nautical units.
time (UTC)temp
F
wind
direction
speed
MPH
gust
MPH
rain 1hr
in
rain 24hr
in
rain mn
in
humidity
%
barometer
mb
20260905043003 63 97 0.0 0.0 0.00 0.31 0.00 92 1010.5
20260905041610 63 97 0.0 0.0 0.00 0.31 0.00 91 1010.5
20260905040002 63 97 0.0 0.0 0.00 0.31 0.31 90 1010.7
20260905034503 64 97 0.0 1.0 0.00 0.31 0.31 91 1010.6
20260905033109 64 97 0.0 0.0 0.00 0.31 0.31 91 1010.6
20260905031616 65 97 0.0 0.0 0.00 0.31 0.31 91 1010.4
20260905030003 65 97 0.0 0.0 0.00 0.31 0.31 91 1010.5
20260905024503 65 97 0.0 0.0 0.00 0.31 0.31 89 1010.5
20260905023007 65 97 0.0 0.0 0.00 0.31 0.31 90 1010.7
20260905021614 65 97 0.0 0.0 0.00 0.31 0.31 88 1010.8
20260905020003 65 97 0.0 2.0 0.00 0.31 0.31 88 1010.8
20260905014503 65 97 0.0 0.0 0.00 0.31 0.31 87 1010.6
20260905013120 65 97 0.0 0.0 0.00 0.31 0.31 88 1010.7
20260905011613 65 97 0.0 2.0 0.00 0.31 0.31 87 1010.9
20260905010002 66 96 0.0 0.0 0.00 0.31 0.31 86 1010.8
20260905004507 66 96 0.0 0.0 0.00 0.31 0.31 87 1010.8
20260905003008 66 96 0.0 0.0 0.00 0.31 0.31 87 1010.7
20260905001602 67 96 0.0 0.0 0.00 0.31 0.31 87 1010.7
20260904234603 68 96 0.0 0.0 0.00 0.31 0.31 82 1010.2
20260904233002 69 96 0.0 0.0 0.00 0.31 0.31 81 1010.1
20260904231602 70 96 0.0 0.0 0.00 0.31 0.31 80 1010.1
20260904230003 71 96 0.0 1.0 0.00 0.31 0.31 76 1010.1
20260904224502 72 94 0.0 1.0 0.00 0.31 0.31 80 1010.1
20260904223111 73 85 0.0 0.0 0.00 0.31 0.31 76 1010.0
20260904221627 74 84 0.0 4.0 0.00 0.31 0.31 72 1009.8
20260904220003 75 153 0.0 3.0 0.00 0.31 0.31 70 1009.8
20260904214502 77 247 0.0 2.0 0.00 0.31 0.31 70 1009.7
20260904213102 78 247 0.0 3.0 0.00 0.31 0.31 65 1009.7
20260904211502 80 187 0.0 3.0 0.00 0.31 0.31 62 1009.6
20260904210003 80 60 0.0 3.0 0.00 0.31 0.31 57 1009.8
20260904204502 80 128 0.0 3.0 0.00 0.31 0.31 62 1010.0
20260904203102 80 213 1.0 6.0 0.00 0.31 0.31 58 1010.0
20260904201503 80 59 0.0 8.0 0.00 0.31 0.31 63 1009.9
20260904200119 80 197 1.0 7.0 0.00 0.31 0.31 63 1010.0
20260904194604 80 187 1.0 6.0 0.00 0.31 0.31 57 1010.1
20260904193006 80 85 0.0 4.0 0.00 0.31 0.31 62 1010.1
20260904191636 80 113 1.0 3.0 0.00 0.31 0.31 61 1010.1
20260904190002 81 20 1.0 5.0 0.00 0.31 0.31 56 1010.3
20260904184502 81 73 1.0 5.0 0.00 0.31 0.31 54 1010.4
20260904183102 81 53 2.0 6.0 0.00 0.31 0.31 54 1010.6
20260904181503 80 67 2.0 7.0 0.00 0.31 0.31 56 1010.6
20260904174604 79 160 1.0 6.0 0.00 0.31 0.31 66 1010.7
20260904173002 78 69 1.0 6.0 0.00 0.31 0.31 60 1010.6
20260904171502 77 88 0.0 3.0 0.00 0.31 0.31 69 1010.7
20260904170103 77 92 0.0 4.0 0.00 0.31 0.31 69 1010.7
20260904164603 78 184 0.0 9.0 0.00 0.31 0.31 59 1010.8
20260904163005 79 65 2.0 10.0 0.00 0.31 0.31 59 1010.9
20260904161612 78 107 1.0 9.0 0.00 0.31 0.31 61 1011.0
20260904154503 78 80 3.0 9.0 0.00 0.31 0.31 63 1011.2
20260904153117 76 71 2.0 5.0 0.00 0.31 0.31 69 1011.4
20260904151603 76 211 1.0 9.0 0.00 0.31 0.31 74 1011.5
20260904150003 76 68 0.0 5.0 0.00 0.31 0.31 77 1011.5
20260904144502 74 182 1.0 8.0 0.00 0.31 0.31 82 1011.8
20260904143121 72 5 0.0 2.0 0.00 0.31 0.31 92 1011.7
20260904141602 72 63 0.0 0.0 0.00 0.31 0.31 95 1011.5
20260904134603 71 67 0.0 1.0 0.00 0.31 0.31 96 1011.4
20260904133113 71 67 0.0 3.0 0.00 0.31 0.31 97 1011.4
20260904131502 71 53 0.0 3.0 0.00 0.31 0.31 98 1011.4
20260904130004 70 113 0.0 3.0 0.00 0.31 0.31 99 1011.5
20260904124503 69 113 0.0 2.0 0.00 0.31 0.31 99 1011.4
20260904123102 69 113 0.0 0.0 0.00 0.31 0.31 99 1011.4
20260904121503 68 113 0.0 0.0 0.00 0.31 0.31 99 1011.3
20260904120109 68 113 0.0 0.0 0.00 0.31 0.31 99 1011.1
20260904114607 67 113 0.0 0.0 0.00 0.31 0.31 99 1011.0
20260904113005 66 113 0.0 0.0 0.00 0.31 0.31 99 1011.0
20260904111604 66 113 0.0 0.0 0.00 0.31 0.31 99 1010.8
20260904104603 66 113 0.0 0.0 0.00 0.31 0.31 98 1010.6
20260904103104 67 113 0.0 0.0 0.00 0.31 0.31 98 1010.4
20260904101607 67 113 0.0 0.0 0.00 0.31 0.31 99 1010.6
20260904100003 67 113 0.0 0.0 0.00 0.31 0.31 99 1010.4
20260904094602 68 113 0.0 0.0 0.00 0.32 0.31 99 1010.3
20260904093001 68 113 0.0 0.0 0.00 0.32 0.31 99 1010.2
20260904091602 68 113 0.0 0.0 0.00 0.32 0.31 98 1010.2
20260904084604 69 113 0.0 0.0 0.00 0.32 0.31 98 1009.8
20260904083002 69 113 0.0 0.0 0.00 0.32 0.31 99 1009.7
20260904081602 69 113 0.0 0.0 0.00 0.32 0.31 98 1009.6
20260904080119 69 113 0.0 0.0 0.00 0.32 0.31 98 1009.5
20260904074603 69 113 0.0 0.0 0.02 0.36 0.31 99 1009.6
20260904073002 69 113 0.0 0.0 0.09 0.36 0.31 99 1009.7
20260904071503 70 113 0.0 0.0 0.21 0.36 0.31 99 1009.8
20260904064502 70 113 0.0 0.0 0.26 0.33 0.28 98 1010.3
20260904063116 70 113 0.0 0.0 0.22 0.27 0.22 98 1010.6
20260904061503 70 113 0.0 0.0 0.10 0.15 0.10 98 1010.9
20260904060104 69 113 0.0 0.0 0.07 0.12 0.07 98 1010.6
20260904054603 69 113 0.0 0.0 0.02 0.10 0.02 98 1010.8
20260904053002 69 113 0.0 0.0 0.00 0.08 0.00 98 1010.7
20260904051602 69 113 0.0 0.0 0.00 0.08 0.00 98 1010.9
20260904050002 69 113 0.0 0.0 0.00 0.08 0.00 98 1010.9
20260904044502 69 113 0.0 0.0 0.00 0.20 0.00 97 1010.9